Pagina principală
METAR-TAF:

METAR-TAF

Aeroporturi :

Oruro, Bolivia

Latitudine: 17-58S, longitudine: 067-04W, elevație: 3072 m

Observații meteo curente

Raportul a fost făcut în urmă cu 10 ore și 59 de minute, la 23:00 UTC
Vânt 6 kt de la Sud
Temperatură 10°C
Umiditate 37%
Presiune 1032 hPa
Vizibilitate de 10 km sau mai mult

METAR: SLOR 132300Z 18006KT 9999 NSC 10/M04 Q1032

Ora: 05:59 (09:59 UTC)


TAF: lipsă

Observații și prognoze meteo pentru peste 4.000 de aeroporturi (rapoarte METAR și TAF).

Stațiile disponibile sunt reprezentate pe hartă prin puncte galbene și roșii.

Țineți indicatorul mouse-ului pe punctul dorit pentru a vedea denumirea stației.

Apoi, faceți clic pentru a vedea observațiile și prognozele meteorologice.

Pentru a schimba harta: Pentru mărire, faceți clic pe butoanele verzi cu cruce neagră; pentru micșorare, pe butonul verde cu o liniuță; pentru hărți învecinate, pe săgețile verzi.


METAR-TAF: